EW3145 Weather Reports


Display with metric or nautical units.
time (UTC)temp
F
wind
direction
speed
MPH
gust
MPH
rain 1hr
in
rain 24hr
in
rain mn
in
humidity
%
barometer
mb
20210621064518 69 188 0.0 0.0 0.00 0.00 0.00 87 1005.5
20210621063102 70 188 0.0 0.0 0.00 0.00 0.00 86 1005.6
20210621061615 70 188 0.0 0.0 0.00 0.00 0.00 85 1005.7
20210621060205 70 188 0.0 0.0 0.00 0.00 0.00 84 1005.8
20210621054610 71 188 0.0 0.0 0.00 0.00 0.00 83 1005.9
20210621053109 71 188 0.0 0.0 0.00 0.00 0.00 83 1006.0
20210621051520 72 188 0.0 0.0 0.00 0.00 0.00 82 1006.0
20210621050021 72 167 0.0 0.0 0.00 0.00 0.00 81 1005.9
20210621044730 72 213 0.0 0.0 0.00 0.00 0.00 80 1006.1
20210621043124 73 171 0.0 5.0 0.00 0.00 0.00 79 1006.1
20210621041716 73 164 2.0 6.0 0.00 0.00 0.00 78 1006.2
20210621040154 73 190 0.0 5.0 0.00 0.00 0.00 76 1006.0
20210621034544 74 192 0.0 1.0 0.00 0.00 0.00 75 1006.3
20210621033022 74 139 0.0 0.0 0.00 0.00 0.00 74 1006.4
20210621031806 74 171 0.0 0.0 0.00 0.00 0.00 74 1006.2
20210621030201 74 196 0.0 0.0 0.00 0.00 0.00 73 1006.3
20210621024607 75 189 0.0 0.0 0.00 0.00 0.00 72 1006.4
20210621023122 75 202 0.0 0.0 0.00 0.00 0.00 72 1006.6
20210621021600 75 181 0.0 0.0 0.00 0.00 0.00 71 1006.5
20210621020029 76 167 0.0 0.0 0.00 0.00 0.00 69 1006.4
20210621014502 76 207 0.0 0.0 0.00 0.00 0.00 68 1006.2
20210621013001 76 207 0.0 0.0 0.00 0.00 0.00 66 1005.7
20210621011754 77 207 0.0 0.0 0.00 0.00 0.00 65 1005.6
20210621010050 78 182 0.0 0.0 0.00 0.00 0.00 63 1005.6
20210621004555 79 183 0.0 0.0 0.00 0.00 0.00 62 1005.4
20210621003105 80 183 0.0 0.0 0.00 0.00 0.00 60 1005.4
20210621001503 81 183 0.0 0.0 0.00 0.00 0.00 58 1005.1
20210621000005 82 188 0.0 0.0 0.00 0.00 0.00 55 1005.0
20210620234627 82 283 0.0 0.0 0.00 0.00 0.00 53 1005.0
20210620233109 83 189 0.0 0.0 0.00 0.00 0.00 52 1004.7
20210620231530 84 219 0.0 0.0 0.00 0.00 0.00 51 1004.6
20210620230105 84 267 0.0 0.0 0.00 0.00 0.00 48 1004.6
20210620224505 85 237 0.0 0.0 0.00 0.00 0.00 48 1004.7
20210620223004 85 261 0.0 0.0 0.00 0.00 0.00 46 1004.7
20210620221724 86 229 0.0 2.0 0.00 0.00 0.00 44 1004.6
20210620220051 87 232 0.0 1.0 0.00 0.00 0.00 43 1004.3
20210620214611 87 232 0.0 3.0 0.00 0.00 0.00 43 1004.2
20210620213106 87 240 0.0 3.0 0.00 0.00 0.00 42 1004.2
20210620211515 88 290 0.0 0.0 0.00 0.00 0.00 38 1004.1
20210620210022 89 211 0.0 1.0 0.00 0.00 0.00 38 1004.1
20210620204641 88 317 0.0 4.0 0.00 0.00 0.00 39 1004.1
20210620203243 89 210 0.0 0.0 0.00 0.00 0.00 39 1004.1
20210620201551 89 192 0.0 0.0 0.00 0.00 0.00 41 1004.1
20210620200142 88 266 0.0 0.0 0.00 0.00 0.00 39 1004.3
20210620194523 89 209 0.0 0.0 0.00 0.00 0.00 38 1004.2
20210620193120 90 234 0.0 0.0 0.00 0.00 0.00 40 1004.2
20210620190152 90 342 0.0 2.0 0.00 0.00 0.00 37 1004.3
20210620184647 89 279 0.0 2.0 0.00 0.00 0.00 39 1004.5
20210620183036 88 321 0.0 0.0 0.00 0.00 0.00 41 1004.6
20210620181557 89 331 0.0 0.0 0.00 0.00 0.00 39 1004.6
20210620180056 88 288 0.0 0.0 0.00 0.00 0.00 40 1004.8
20210620174640 89 248 0.0 0.0 0.00 0.00 0.00 39 1004.9
20210620173150 90 331 0.0 0.0 0.00 0.00 0.00 39 1005.0
20210620171646 89 221 0.0 0.0 0.00 0.00 0.00 40 1005.1
20210620170100 87 190 0.0 0.0 0.00 0.00 0.00 45 1005.2
20210620164624 88 265 0.0 10.0 0.00 0.00 0.00 40 1005.4
20210620163019 89 284 0.0 0.0 0.00 0.00 0.00 38 1005.5
20210620161614 88 244 0.0 9.0 0.00 0.00 0.00 44 1005.6
20210620160011 89 223 0.0 3.0 0.00 0.00 0.00 39 1005.9
20210620154518 89 252 0.0 1.0 0.00 0.00 0.00 38 1005.8
20210620153005 89 350 0.0 0.0 0.00 0.00 0.00 40 1005.8
20210620151505 89 263 0.0 0.0 0.00 0.00 0.00 39 1005.9
20210620144719 89 329 0.0 7.0 0.00 0.00 0.00 39 1006.0
20210620143107 88 305 0.0 0.0 0.00 0.00 0.00 41 1006.0
20210620141737 89 284 0.0 0.0 0.00 0.00 0.00 39 1006.1
20210620140103 88 302 0.0 0.0 0.00 0.00 0.00 40 1006.2
20210620134633 89 254 0.0 7.0 0.00 0.00 0.00 40 1006.2
20210620133024 89 277 0.0 1.0 0.00 0.00 0.00 40 1006.3
20210620131521 88 307 0.0 1.0 0.00 0.00 0.00 39 1006.3
20210620130133 88 329 0.0 0.0 0.00 0.00 0.00 42 1006.2
20210620124603 87 323 0.0 0.0 0.00 0.00 0.00 44 1006.3
20210620123037 86 334 0.0 0.0 0.00 0.00 0.00 46 1006.2
20210620121550 85 250 0.0 0.0 0.00 0.00 0.00 48 1006.3
20210620120012 81 331 0.0 0.0 0.00 0.00 0.00 52 1006.1
20210620114542 80 325 0.0 0.0 0.00 0.00 0.00 52 1006.3
20210620113053 81 259 0.0 0.0 0.00 0.00 0.00 51 1006.0
20210620111550 81 268 0.0 0.0 0.00 0.00 0.00 53 1005.8
20210620110102 77 237 0.0 0.0 0.00 0.00 0.00 58 1005.7
20210620104523 72 329 0.0 0.0 0.00 0.00 0.00 67 1005.7
20210620103131 69 244 0.0 0.0 0.00 0.00 0.00 73 1005.6
20210620101743 69 244 0.0 0.0 0.00 0.00 0.00 71 1005.5
20210620100059 69 244 0.0 0.0 0.00 0.00 0.00 69 1005.3
20210620094601 70 244 0.0 0.0 0.00 0.00 0.00 69 1005.3
20210620093146 70 244 0.0 0.0 0.00 0.00 0.00 66 1005.1
20210620091528 70 265 0.0 0.0 0.00 0.00 0.00 65 1005.0
20210620090209 70 274 0.0 0.0 0.00 0.00 0.00 64 1004.8
20210620084655 70 258 0.0 0.0 0.00 0.00 0.00 63 1004.7
20210620083056 70 248 1.0 6.0 0.00 0.00 0.00 63 1004.5
20210620081547 70 284 0.0 0.0 0.00 0.00 0.00 62 1004.4
20210620080047 70 260 0.0 0.0 0.00 0.00 0.00 62 1004.3
20210620074523 70 265 0.0 0.0 0.00 0.00 0.00 62 1004.1
20210620073418 70 229 0.0 0.0 0.00 0.00 0.00 62 1004.0
20210620071739 70 200 0.0 0.0 0.00 0.00 0.00 61 1004.0
20210620070103 71 240 0.0 0.0 0.00 0.00 0.00 60 1003.8